Theta_e
306 305 304 303 303 303 304 304 304 304 304 305 304 305 305 305 304 304 304 304 303 303 303 304 304 304 304 304 304 308 310 312 312 314 314 315 315 313 309 307 307 306 302 301 301 302 300
308 307 305 304 303 303 303 305 305 305 304 304 305 305 305 304 304 303 304 304 305 305 305 303 303 303 304 302 303 308 310 313 314 314 314 314 314 313 308 304 306 303 302 301 301 300 299
309 308 306 305 303 303 303 304 305 305 305 305 304 304 305 305 305 304 303 304 305 304 302 302 303 302 302 302 302 305 310 312 313 313 313 313 313 313 308 304 304 304 305 302 302 301 300
306 308 307 306 303 303 303 304 304 304 305 305 305 304 305 304 304 304 303 304 304 303 302 302 302 301 299 301 301 303 306 311 311 312 313 313 312 312 307 305 304 304 305 310 303 302 299
303 306 308 307 305 304 304 304 304 304 305 305 305 305 305 304 303 303 304 303 305 304 302 302 302 301 298 301 303 303 306 307 312 311 311 312 313 307 306 305 307 303 310 306 305 301 300
306 303 305 307 306 304 304 304 304 304 305 305 306 306 307 305 304 304 305 304 305 303 303 303 301 302 300 301 303 304 306 307 309 310 311 312 310 305 303 307 307 308 308 305 305 301 300
315 308 303 305 307 306 304 303 304 304 305 305 306 306 309 308 306 307 306 305 306 304 303 297 297 297 298 299 303 303 305 305 307 309 302 301 307 307 306 303 301 303 305 306 303 297 298
316 315 309 303 306 307 305 303 304 304 305 305 306 306 309 310 308 308 307 306 304 303 298 297 296 296 296 297 302 302 302 302 301 298 298 300 302 295 299 297 299 300 301 301 298 295 295
315 314 315 309 303 306 306 304 303 304 304 305 306 306 307 309 309 308 307 305 301 303 300 298 297 297 297 296 297 299 299 299 297 296 295 297 295 294 296 296 300 299 301 299 299 294 292
317 315 313 315 309 303 306 306 304 303 304 304 304 305 307 309 309 307 306 303 300 303 302 301 298 297 296 297 295 297 297 298 296 295 294 293 293 294 294 295 295 298 293 294 294 294 296
314 318 316 313 315 309 304 305 305 303 303 304 304 305 307 310 308 308 307 302 301 305 313 299 297 297 297 297 296 295 296 298 295 294 294 294 293 293 294 293 293 295 293 293 292 292 291
320 315 315 315 313 314 310 304 305 304 302 304 304 305 308 309 311 309 305 302 305 309 311 301 297 296 297 296 296 296 296 296 295 294 292 292 292 292 292 292 292 292 293 292 291 292 294
322 321 317 318 314 314 315 310 304 303 302 304 303 305 309 310 310 307 305 306 311 313 301 301 299 296 296 295 295 294 294 292 294 297 295 293 292 292 292 293 293 293 293 299 300 301 302
322 323 321 319 317 314 315 314 308 306 304 303 302 305 309 310 310 305 306 308 316 307 301 296 297 296 297 294 294 295 295 294 292 293 292 295 299 291 291 292 293 293 293 297 296 303 301
320 320 320 321 319 317 314 315 316 312 309 306 299 304 307 309 308 305 308 311 312 309 299 297 296 299 297 295 296 296 295 294 292 292 294 293 296 291 291 291 291 292 293 293 289 290 292
321 320 320 321 320 318 316 315 316 318 316 306 299 302 305 307 307 305 308 313 307 298 296 296 310 300 302 298 299 298 298 293 294 292 293 291 297 290 291 291 291 292 292 294 293 295 301
322 322 321 322 321 316 319 318 317 318 316 303 298 303 304 305 305 304 310 308 299 297 297 299 301 298 298 298 297 296 298 293 293 292 293 290 293 294 290 290 292 290 289 289 289 292 296
321 322 321 322 321 319 320 319 317 317 316 309 301 308 305 304 303 299 303 302 298 296 297 296 296 297 298 294 296 296 298 296 292 292 291 290 287 291 294 286 287 290 287 287 294 293 286
320 318 320 322 321 320 319 319 318 318 317 313 305 307 301 302 306 300 297 297 297 296 296 296 296 296 294 294 297 297 295 291 292 291 291 290 290 295 298 290 286 287 286 284 282 282 288
316 314 318 320 321 320 320 319 319 319 318 313 311 306 300 300 304 301 298 299 299 296 296 296 294 294 293 294 292 294 298 291 291 291 294 292 286 296 301 297 288 287 288 289 290 289 292
317 313 317 318 320 319 319 319 319 318 317 313 312 308 305 301 302 301 304 299 300 299 296 295 294 295 293 297 296 296 296 291 290 291 291 291 292 284 284 283 285 288 290 288 290 293 295
316 313 313 316 318 318 318 318 319 318 317 314 312 307 303 299 300 301 303 302 302 299 295 296 295 294 294 299 299 299 290 288 292 288 285 283 288 281 283 285 284 283 286 288 290 291 291
318 317 313 314 315 315 316 315 317 317 313 312 309 309 310 297 298 302 302 302 303 301 300 298 297 295 294 293 293 292 291 290 291 288 285 286 284 286 290 280 280 289 285 288 286 282 289
313 314 308 306 300 299 299 301 314 317 314 313 312 311 310 300 298 301 300 302 302 302 298 294 295 298 292 293 293 290 289 286 286 284 287 289 291 292 287 282 292 290 273 279 286 281 283
299 300 297 298 298 297 298 299 299 313 314 312 311 310 310 300 300 300 300 299 299 298 294 292 291 291 292 293 294 289 287 284 278 279 282 283 291 291 287 279 287 288 279 280 283 285 277
297 296 296 297 297 297 298 305 307 310 311 311 310 310 310 304 301 302 299 300 299 297 292 287 289 290 292 293 296 297 294 288 286 279 279 283 284 289 281 285 289 286 277 279 277 286 273
296 296 295 296 296 298 300 308 308 309 307 309 309 310 309 304 299 301 301 301 300 295 289 286 287 289 292 293 296 295 294 279 289 284 280 282 284 289 289 290 285 279 278 278 285 287 274
295 295 296 298 306 308 306 305 308 309 308 306 307 308 308 305 299 301 300 300 298 297 296 287 287 286 288 293 293 287 281 282 280 278 280 283 285 283 287 288 287 279 275 285 278 274 274
295 295 295 298 307 309 307 305 308 306 308 307 308 307 307 306 298 298 298 299 299 300 299 291 292 289 290 285 281 279 283 276 279 289 274 287 285 286 288 287 277 278 277 276 275 275 275
Wind_Speed
5 5 5 6 5 3 2 3 4 5 6 7 8 9 10 12 13 11 9 7 7 7 6 5 4 3 2 6 7 7 6 6 5 3 4 6 6 6 5 5 4 4 3 6 6 7 9
6 6 6 6 5 4 3 2 2 3 5 6 6 7 7 9 9 8 7 6 5 6 5 5 5 5 2 6 6 7 6 5 4 4 4 4 4 9 10 5 4 4 9 8 3 4 6
7 7 7 7 7 6 4 3 2 2 3 4 5 4 5 5 4 4 5 7 6 6 5 5 5 4 10 7 6 6 5 7 7 6 7 9 7 2 7 6 8 7 4 2 2 1 2
9 8 8 8 8 7 5 4 3 2 2 2 3 3 3 3 2 2 4 6 7 6 5 5 5 4 7 7 6 3 4 6 7 8 10 10 10 10 5 14 4 3 4 2 0 2 1
11 10 9 9 9 8 7 6 4 3 2 1 2 2 3 3 2 2 5 5 7 6 5 6 6 5 5 6 6 8 7 6 7 8 9 7 4 7 5 4 3 6 1 2 3 1 1
13 11 10 9 9 9 9 8 6 5 3 2 2 2 2 2 1 3 5 5 4 7 4 3 6 5 6 5 7 8 6 5 4 6 4 3 5 4 3 4 2 1 1 1 3 1 0
14 13 12 11 10 10 10 10 9 7 5 4 3 3 3 2 1 3 5 2 2 1 16 10 7 5 5 4 7 7 4 5 6 5 4 5 5 3 2 2 3 5 3 2 3 1 2
16 15 14 13 12 11 11 11 10 9 6 5 4 4 2 1 1 3 3 2 4 4 12 11 8 7 8 6 3 7 5 2 4 3 2 5 3 2 2 3 3 2 2 4 3 1 2
17 17 16 15 13 13 12 12 12 11 9 7 6 5 3 2 0 2 3 3 5 5 5 6 8 5 5 7 7 11 8 4 6 4 5 4 2 3 1 2 2 1 1 1 3 5 0
21 18 18 17 16 15 13 13 13 12 10 8 7 6 4 2 1 1 1 2 3 2 4 5 4 4 6 3 5 9 7 4 6 3 3 5 2 2 3 3 2 2 1 1 1 3 3
27 22 19 19 18 17 16 14 13 13 12 10 9 7 5 4 1 1 1 1 1 1 3 2 3 2 5 5 2 6 8 4 4 3 1 0 2 3 4 1 2 1 1 1 2 3 3
30 27 23 22 20 19 18 17 16 15 14 12 10 8 6 4 3 1 3 1 1 4 4 1 1 4 2 6 3 3 3 6 5 3 6 3 2 3 2 1 2 3 1 3 3 2 2
29 28 27 26 23 21 21 19 17 17 16 13 11 9 7 6 4 4 3 1 4 3 2 1 1 3 3 4 4 6 4 4 3 3 3 2 3 2 2 1 1 1 3 3 4 3 3
29 31 33 29 27 25 24 21 19 19 18 15 12 10 9 6 6 6 3 4 2 2 2 0 1 1 3 3 2 4 2 3 5 4 3 3 2 1 4 1 2 2 2 4 4 2 4
31 30 30 30 31 29 27 25 22 22 24 20 12 11 10 9 8 6 3 3 4 4 5 7 1 2 1 1 0 1 3 2 2 1 5 3 2 0 2 2 2 0 1 3 5 1 2
39 35 35 35 36 33 31 29 28 27 29 22 14 10 10 10 10 8 3 3 4 1 5 3 3 0 3 1 1 2 2 1 1 0 1 3 3 0 0 2 4 2 2 3 2 2 5
38 39 39 41 38 37 35 32 31 28 28 24 14 7 10 12 11 4 3 5 3 3 3 3 4 4 2 3 2 1 2 1 0 2 3 4 3 1 0 5 6 2 1 3 3 3 4
38 35 40 43 38 39 34 31 31 30 28 30 17 4 11 16 4 1 4 5 4 4 3 2 3 3 5 5 3 3 4 2 2 3 4 1 4 2 5 1 2 1 5 5 4 5 1
28 27 37 41 46 44 38 35 36 31 31 30 17 6 13 20 4 3 2 3 3 3 3 3 2 1 1 6 2 3 4 2 3 4 5 5 1 2 5 4 4 3 4 4 4 2 7
23 16 29 46 44 41 36 35 38 35 30 27 12 3 4 10 3 6 6 4 4 2 3 3 3 3 3 2 3 4 4 1 1 2 3 3 2 6 6 5 5 3 4 5 4 3 6
24 17 22 25 39 38 34 39 37 28 29 30 8 3 7 4 5 5 4 6 5 5 2 4 2 3 5 3 1 3 2 2 2 1 2 2 4 1 5 5 4 7 6 9 13 15 9
26 20 10 16 16 23 16 27 24 29 33 25 11 8 6 3 9 7 1 5 8 3 7 3 4 2 3 4 4 6 6 3 5 1 2 2 3 2 4 6 3 5 12 18 19 18 16
23 26 18 21 28 25 18 18 30 29 32 13 13 18 11 4 3 4 5 6 8 13 4 3 8 5 3 2 4 4 5 5 5 6 5 4 4 2 6 3 6 8 10 14 5 3 12
19 22 21 20 18 19 21 27 29 24 29 21 20 19 8 2 3 3 5 3 5 6 6 4 7 4 6 10 9 6 6 8 6 6 4 5 4 2 4 5 4 4 2 1 8 5 12
20 20 18 20 21 20 22 26 26 27 30 23 19 12 7 3 4 4 8 6 15 9 5 5 3 7 15 5 1 3 3 4 4 6 5 6 2 1 2 3 9 5 1 5 6 6 6
18 19 18 19 21 20 21 26 25 29 31 27 15 12 11 11 7 8 9 10 4 3 4 3 9 16 7 2 1 2 4 3 3 4 5 2 3 2 2 2 6 5 3 3 2 6 3
17 19 18 19 20 20 23 28 28 31 21 28 19 17 12 7 7 12 4 7 9 7 3 5 9 6 8 2 2 4 4 2 3 6 5 3 1 9 7 5 9 4 6 5 5 5 3
16 16 16 16 17 18 20 30 33 28 28 27 22 19 14 6 12 8 10 10 10 9 4 12 6 2 2 3 3 3 3 4 1 3 6 8 8 4 3 4 11 11 6 6 1 3 5
16 15 14 14 17 20 22 32 32 29 27 29 18 15 14 7 9 10 9 10 9 11 8 22 3 7 12 3 0 3 2 1 3 4 2 3 6 5 11 7 2 17 3 1 1 1 3
Wind_Direction
196 196 195 185 175 155 112 72 55 56 53 52 66 74 90 96 102 99 86 69 57 43 39 39 42 34 46 79 56 37 42 42 55 94 132 135 133 120 106 106 88 77 126 78 106 116 119
207 208 205 200 190 182 165 120 76 55 58 62 63 82 105 105 99 91 72 48 32 31 25 27 39 39 80 81 43 36 49 53 73 92 111 131 130 114 100 69 60 109 105 117 96 115 137
216 214 213 211 204 198 191 169 129 89 62 70 83 91 116 134 105 74 36 23 23 19 31 37 35 62 81 85 54 39 59 79 78 85 105 110 112 102 105 101 113 125 82 110 56 69 69
220 218 218 218 214 209 208 200 185 158 119 91 88 98 115 133 148 32 16 16 16 7 22 14 23 73 79 73 55 47 67 89 86 95 102 114 95 99 67 117 74 70 69 53 234 169 60
224 223 222 221 220 217 213 209 210 198 164 119 110 113 119 126 102 39 17 0 2 13 17 34 49 109 82 71 55 49 62 98 119 102 104 112 110 86 94 80 44 20 54 12 337 90 93
227 226 225 225 224 221 217 217 210 205 194 175 161 145 121 108 76 36 6 355 27 38 5 69 48 90 51 18 41 38 57 80 121 129 116 85 65 76 43 67 235 186 75 283 274 343 266
234 230 229 227 226 225 222 217 215 210 205 197 183 168 142 116 79 19 7 25 335 357 53 64 49 71 38 38 51 42 74 82 92 91 55 28 69 64 3 84 120 118 128 230 238 50 256
237 236 230 230 226 225 223 222 220 212 210 207 196 184 173 143 54 17 24 42 67 113 83 57 59 61 38 33 73 46 45 75 65 81 6 32 74 306 111 97 111 116 126 255 270 151 202
235 236 235 230 226 223 223 221 222 220 208 205 204 199 199 193 91 35 48 80 109 102 80 40 42 36 25 37 47 17 31 47 66 62 28 103 78 346 82 49 72 15 246 313 291 326 268
236 233 233 233 228 224 220 220 222 227 221 209 201 203 212 208 219 18 61 94 122 73 82 342 351 23 15 59 55 32 36 57 38 107 78 76 346 80 68 79 23 274 320 164 317 34 281
233 235 233 235 230 225 220 217 220 221 223 214 208 206 206 204 181 191 158 125 92 85 7 13 356 22 32 81 97 23 37 60 86 104 113 144 47 44 70 46 331 176 7 72 77 102 36
230 223 228 236 232 228 225 218 214 216 217 216 210 208 201 195 201 188 147 116 83 46 258 74 329 354 43 27 38 19 59 68 93 88 48 98 62 56 115 66 44 141 122 60 62 91 19
237 240 226 229 230 229 227 221 215 215 214 214 204 202 200 199 195 167 149 76 30 146 17 101 55 36 87 8 37 28 26 29 81 70 26 74 15 18 43 105 24 28 40 329 347 6 253
243 240 238 227 231 229 226 223 214 213 217 210 200 193 192 191 176 164 146 63 208 119 208 121 118 87 95 356 44 7 79 61 31 67 93 117 319 355 340 88 155 69 135 146 247 269 282
238 246 244 241 231 229 227 224 224 221 213 204 201 190 185 179 171 167 142 82 208 186 148 148 58 106 56 89 98 88 52 129 171 124 138 126 244 14 28 19 18 66 98 161 93 122 355
239 238 243 243 226 230 226 228 229 226 221 193 195 187 192 181 171 163 94 215 184 160 129 144 171 297 160 233 149 67 171 294 143 354 329 216 13 175 346 119 27 135 174 77 24 335 295
245 242 244 243 222 228 230 233 228 224 214 180 181 180 185 175 163 171 171 198 158 168 164 154 168 133 148 182 197 144 123 288 150 119 111 137 101 242 34 202 176 132 10 36 112 142 200
245 244 242 245 231 224 229 224 221 218 208 189 167 175 173 168 118 85 164 171 144 169 156 126 113 111 156 170 168 185 182 181 167 149 133 31 138 213 234 32 355 144 187 153 138 243 199
248 259 252 245 238 222 221 226 222 215 216 190 166 141 164 172 152 183 172 110 155 137 179 152 131 98 143 168 104 194 166 153 174 161 167 190 257 350 322 15 3 196 219 138 115 89 205
232 254 256 240 235 222 227 231 227 223 215 187 158 120 138 194 192 147 149 174 151 139 120 121 133 113 93 115 16 193 186 98 109 117 102 150 123 190 210 209 120 162 216 207 156 161 247
231 250 224 236 223 221 218 228 227 214 204 182 156 168 161 185 214 167 154 136 136 175 136 171 31 198 162 131 98 214 136 141 72 54 59 104 222 163 282 229 174 200 194 207 209 220 218
219 225 221 224 206 207 224 222 224 216 212 181 152 143 141 83 131 117 315 202 151 174 142 213 167 168 161 158 185 199 142 193 205 93 116 9 243 107 283 298 179 235 223 230 231 239 250
215 221 219 227 215 218 208 227 207 209 202 185 172 156 151 141 117 116 200 179 194 143 175 134 164 125 141 164 141 127 171 120 167 155 178 143 131 52 269 324 315 286 226 197 193 220 215
215 221 224 226 227 217 216 216 215 216 213 197 173 161 143 147 131 203 144 137 154 179 139 128 143 122 141 128 109 108 98 78 91 52 51 145 142 179 275 349 304 264 357 122 215 224 227
212 222 221 217 223 221 220 211 210 205 217 188 177 179 147 113 148 131 141 106 110 112 91 114 92 127 137 137 88 3 339 15 12 27 11 22 135 246 236 219 305 307 259 157 168 276 228
207 215 212 207 212 213 211 204 197 204 210 194 196 192 190 132 215 151 137 160 134 122 99 88 133 145 136 113 130 229 239 225 298 9 26 73 55 146 101 195 242 241 248 193 170 289 180
203 214 214 209 209 207 205 193 198 199 203 211 196 196 179 117 164 146 148 164 152 130 101 149 161 164 160 141 158 198 238 158 233 178 173 121 182 217 214 250 280 231 159 140 92 258 162
204 208 209 204 199 199 201 190 199 197 197 197 189 186 187 145 148 177 167 148 152 170 155 151 117 177 96 178 171 214 154 220 123 182 183 169 160 195 167 219 270 160 126 179 157 123 171
197 200 199 196 188 189 186 188 196 200 201 189 184 171 176 149 158 175 174 165 165 173 170 170 176 157 173 103 119 96 194 124 173 252 326 246 195 183 191 216 142 183 97 181 5 3 226